When you browse on this site, cookies collect data to enhance your experience and personalize the content and advertising you see.
Visit our Privacy Policy to learn more. By continuing to use the site, you agree to this use of cookies and data.
  • In Switzerland
  • List of Countries
  • For 7 days
  • Water Temperature
  • Satellite Maps
  • Weather Map
  • Weather Widgets
  • user-avatar
    Login

    Hourly Weather Xiyan

    Today, 26 May, Sunday

    Time Temperature Precipitation Wind Pressure Humidity
    00:00 +25°C° 1.5 mm 1 mps 719 mmHg 91%
    01:00 +25°C° 0 mm 1 mps 719 mmHg 93%
    02:00 +25°C° 4.6 mm 1 mps 719 mmHg 94%
    03:00 +25°C° 4.6 mm 1 mps 719 mmHg 95%
    04:00 +25°C° 4.6 mm 1 mps 719 mmHg 95%
    05:00 +25°C° 1.8 mm 1 mps 720 mmHg 93%
    06:00 +26°C° 1.8 mm 1 mps 720 mmHg 91%
    07:00 +27°C° 0 mm 3 mps 720 mmHg 87%
    08:00 +28°C° 1.3 mm 3 mps 721 mmHg 83%
    09:00 +29°C° 1.3 mm 3 mps 721 mmHg 80%
    10:00 +31°C° 1.3 mm 3 mps 721 mmHg 76%
    11:00 +31°C° 2.8 mm 3 mps 720 mmHg 76%
    12:00 +31°C° 2.8 mm 2 mps 720 mmHg 75%
    13:00 +31°C° 0 mm 3 mps 720 mmHg 73%
    14:00 +31°C° 2.2 mm 2 mps 720 mmHg 76%
    15:00 +30°C° 2.2 mm 1 mps 720 mmHg 78%
    16:00 +30°C° 2.2 mm 1 mps 719 mmHg 81%
    17:00 +27°C° 1.1 mm 0 mps 719 mmHg 84%
    18:00 +26°C° 1.1 mm 0 mps 719 mmHg 87%
    19:00 +24°C° 0 mm 0 mps 720 mmHg 90%
    20:00 +24°C° 0.7 mm 0 mps 720 mmHg 91%
    21:00 +24°C° 0.7 mm 0 mps 720 mmHg 92%
    22:00 +23°C° 0.7 mm 0 mps 721 mmHg 93%
    23:00 +23°C° 1.6 mm 0 mps 721 mmHg 94%

    Tomorrow, 27 May, Monday

    Time Temperature Precipitation Wind Pressure Humidity
    00:00 +25°C° 1.6 mm 1 mps 721 mmHg 94%
    01:00 +25°C° 1.6 mm 1 mps 721 mmHg 95%
    02:00 +25°C° 1.5 mm 1 mps 721 mmHg 95%
    03:00 +24°C° 1.5 mm 1 mps 721 mmHg 95%
    04:00 +22°C° 1.5 mm 0 mps 721 mmHg 95%
    05:00 +23°C° 1.5 mm 0 mps 722 mmHg 93%
    06:00 +24°C° 1.5 mm 0 mps 722 mmHg 91%
    07:00 +26°C° 1.5 mm 0 mps 722 mmHg 88%
    08:00 +28°C° 1.2 mm 1 mps 723 mmHg 86%
    09:00 +29°C° 1.2 mm 2 mps 723 mmHg 83%
    10:00 +29°C° 1.2 mm 4 mps 723 mmHg 80%
    11:00 +30°C° 0.2 mm 4 mps 723 mmHg 75%
    12:00 +32°C° 0.2 mm 4 mps 723 mmHg 70%
    13:00 +32°C° 0.2 mm 5 mps 723 mmHg 65%
    14:00 +30°C° 0.2 mm 5 mps 723 mmHg 68%
    15:00 +30°C° 0.2 mm 4 mps 723 mmHg 71%
    16:00 +29°C° 0.2 mm 4 mps 723 mmHg 74%
    17:00 +28°C° 0 mm 4 mps 723 mmHg 75%
    18:00 +26°C° 0 mm 3 mps 723 mmHg 77%
    19:00 +25°C° 0 mm 3 mps 723 mmHg 79%
    20:00 +25°C° 0 mm 2 mps 724 mmHg 81%
    21:00 +24°C° 0 mm 2 mps 725 mmHg 82%
    22:00 +24°C° 0 mm 2 mps 725 mmHg 84%
    23:00 +23°C° 0 mm 2 mps 725 mmHg 82%

    Day after tomorrow, 28 May, Tuesday

    Time Temperature Precipitation Wind Pressure Humidity
    00:00 +23°C° 0 mm 1 mps 725 mmHg 81%
    01:00 +23°C° 0 mm 1 mps 725 mmHg 80%
    02:00 +22°C° 0 mm 1 mps 725 mmHg 78%
    03:00 +22°C° 0 mm 1 mps 725 mmHg 76%
    04:00 +22°C° 0 mm 1 mps 725 mmHg 74%
    05:00 +22°C° 0 mm 1 mps 725 mmHg 75%
    06:00 +22°C° 0 mm 1 mps 725 mmHg 76%
    07:00 +22°C° 0 mm 1 mps 726 mmHg 77%
    08:00 +23°C° 0 mm 1 mps 726 mmHg 76%
    09:00 +23°C° 0 mm 1 mps 726 mmHg 76%
    10:00 +23°C° 0 mm 1 mps 726 mmHg 76%
    11:00 +25°C° 0 mm 2 mps 726 mmHg 73%
    12:00 +26°C° 0 mm 2 mps 726 mmHg 69%
    13:00 +27°C° 0 mm 3 mps 726 mmHg 66%
    14:00 +27°C° 0 mm 3 mps 725 mmHg 66%
    15:00 +27°C° 0 mm 3 mps 725 mmHg 67%
    16:00 +27°C° 0 mm 3 mps 725 mmHg 67%
    17:00 +26°C° 0 mm 3 mps 725 mmHg 72%
    18:00 +25°C° 0 mm 2 mps 725 mmHg 76%
    19:00 +23°C° 0 mm 2 mps 725 mmHg 80%
    20:00 +23°C° 0 mm 2 mps 726 mmHg 82%
    21:00 +22°C° 0 mm 1 mps 726 mmHg 84%
    22:00 +22°C° 0 mm 1 mps 727 mmHg 85%
    23:00 +21°C° 0 mm 1 mps 726 mmHg 84%

    29 May, Wednesday

    Time Temperature Precipitation Wind Pressure Humidity
    00:00 +21°C° 0 mm 1 mps 726 mmHg 84%
    01:00 +20°C° 0 mm 1 mps 725 mmHg 83%
    02:00 +20°C° 0 mm 1 mps 725 mmHg 81%
    03:00 +18°C° 0 mm 0 mps 725 mmHg 78%
    04:00 +18°C° 0 mm 0 mps 725 mmHg 76%
    05:00 +19°C° 0 mm 0 mps 725 mmHg 74%
    06:00 +22°C° 0 mm 1 mps 725 mmHg 71%
    07:00 +23°C° 0 mm 1 mps 726 mmHg 69%
    08:00 +25°C° 0 mm 1 mps 726 mmHg 64%
    09:00 +27°C° 0 mm 1 mps 726 mmHg 58%
    10:00 +29°C° 0 mm 1 mps 726 mmHg 53%
    11:00 +29°C° 0 mm 2 mps 725 mmHg 54%
    12:00 +30°C° 0 mm 2 mps 725 mmHg 54%
    13:00 +31°C° 0 mm 2 mps 724 mmHg 54%
    14:00 +30°C° 0 mm 2 mps 724 mmHg 59%
    15:00 +29°C° 0 mm 1 mps 723 mmHg 65%
    16:00 +28°C° 0 mm 1 mps 723 mmHg 70%
    17:00 +27°C° 0 mm 1 mps 723 mmHg 75%
    18:00 +26°C° 0 mm 1 mps 723 mmHg 80%
    19:00 +24°C° 0 mm 1 mps 723 mmHg 85%
    20:00 +24°C° 0 mm 1 mps 723 mmHg 86%
    21:00 +24°C° 0 mm 1 mps 724 mmHg 87%
    22:00 +22°C° 0 mm 0 mps 724 mmHg 88%
    23:00 +22°C° 0.1 mm 0 mps 724 mmHg 88%

    30 May, Thursday

    Time Temperature Precipitation Wind Pressure Humidity
    00:00 +22°C° 0.1 mm 0 mps 724 mmHg 88%
    01:00 +22°C° 0.1 mm 0 mps 723 mmHg 87%
    02:00 +22°C° 0.1 mm 0 mps 723 mmHg 88%
    03:00 +22°C° 0.1 mm 0 mps 723 mmHg 88%
    04:00 +22°C° 0.1 mm 0 mps 723 mmHg 89%
    05:00 +23°C° 0.1 mm 0 mps 723 mmHg 86%
    06:00 +24°C° 0.1 mm 0 mps 724 mmHg 82%
    07:00 +25°C° 0.1 mm 0 mps 724 mmHg 79%
    08:00 +26°C° 0.1 mm 0 mps 724 mmHg 75%
    09:00 +28°C° 0.1 mm 0 mps 725 mmHg 71%
    10:00 +29°C° 0.1 mm 0 mps 725 mmHg 68%
    11:00 +29°C° 0.7 mm 0 mps 724 mmHg 71%
    12:00 +28°C° 0.7 mm 0 mps 723 mmHg 75%
    13:00 +28°C° 0.7 mm 0 mps 722 mmHg 79%
    14:00 +28°C° 1.9 mm 0 mps 722 mmHg 79%
    15:00 +28°C° 1.9 mm 0 mps 721 mmHg 79%
    16:00 +28°C° 1.9 mm 0 mps 721 mmHg 80%
    17:00 +29°C° 2.8 mm 1 mps 721 mmHg 84%
    18:00 +28°C° 2.8 mm 1 mps 722 mmHg 88%
    19:00 +26°C° 2.8 mm 1 mps 722 mmHg 92%
    20:00 +26°C° 2.2 mm 1 mps 722 mmHg 93%
    21:00 +24°C° 2.2 mm 0 mps 723 mmHg 94%
    22:00 +23°C° 2.2 mm 0 mps 723 mmHg 95%
    23:00 +23°C° 1.3 mm 0 mps 723 mmHg 96%

    31 May, Friday

    Time Temperature Precipitation Wind Pressure Humidity
    00:00 +25°C° 1.3 mm 1 mps 723 mmHg 97%
    01:00 +25°C° 1.3 mm 1 mps 722 mmHg 97%
    02:00 +25°C° 2.7 mm 1 mps 722 mmHg 98%
    03:00 +25°C° 2.7 mm 1 mps 722 mmHg 98%
    04:00 +25°C° 2.7 mm 1 mps 722 mmHg 98%
    05:00 +25°C° 5.9 mm 1 mps 723 mmHg 98%
    06:00 +25°C° 5.9 mm 1 mps 723 mmHg 98%
    07:00 +24°C° 5.9 mm 1 mps 723 mmHg 98%
    08:00 +24°C° 7 mm 1 mps 723 mmHg 98%
    09:00 +24°C° 7 mm 1 mps 724 mmHg 98%
    10:00 +24°C° 7 mm 1 mps 724 mmHg 98%
    11:00 +24°C° 7.3 mm 1 mps 723 mmHg 98%
    12:00 +24°C° 7.3 mm 1 mps 723 mmHg 98%
    13:00 +22°C° 7.3 mm 0 mps 722 mmHg 99%
    14:00 +22°C° 1.1 mm 0 mps 722 mmHg 98%
    15:00 +24°C° 1.1 mm 1 mps 722 mmHg 98%
    16:00 +24°C° 1.1 mm 1 mps 721 mmHg 97%
    17:00 +24°C° 0.1 mm 1 mps 722 mmHg 97%
    18:00 +22°C° 0.1 mm 0 mps 722 mmHg 98%
    19:00 +21°C° 0.1 mm 0 mps 722 mmHg 98%
    20:00 +21°C° 0.2 mm 0 mps 722 mmHg 98%
    21:00 +21°C° 0.2 mm 0 mps 723 mmHg 97%
    22:00 +21°C° 0.2 mm 0 mps 723 mmHg 97%
    23:00 +21°C° 0.7 mm 0 mps 722 mmHg 97%
    Show more